Location: Bonningues
(50.7927°N, 2.0150°E)
Time: 08:25:40
(UTC+00:00)

Cosmos 1602 - Pass Details

Date: 08 August 2020
Orbit: 513 x 535 km, 82.5° (Epoch: 26 September)

Event Time Altitude Azimuth Distance (km) Brightness Sun altitude
Exits shadow 22:05:51 27° 215° (SW) 1,046 5.0 -19.1°
Maximum altitude 22:07:46 56° 283° (WNW) 638 4.3 -19.2°
Drops below altitude 10° 22:11:41 10° 3° (N) 1,802 7.3 -19.5°
Sets 22:13:53 0° 8° (N) 2,700 8.3 -19.6°
